Location: Holyhead Bay
(53.3667°N, 4.6667°W)
Time: 19:20:06
(UTC+00:00)

Sich 1 - Pass Details

Date: 24 November 2020
Orbit: 593 x 626 km, 82.5° (Epoch: 17 January)

Event Time Altitude Azimuth Distance (km) Brightness Sun altitude
Rises 16:56:15 0° 355° (N) 2,920 6.3 -6.8°
Reaches altitude 10° 16:58:46 10° 7° (N) 2,005 5.4 -7.1°
Maximum altitude 17:02:38 28° 67° (ENE) 1,163 3.9 -7.6°
Drops below altitude 10° 17:06:26 10° 128° (SE) 1,976 5.4 -8.1°
Sets 17:08:53 0° 140° (SE) 2,870 6.3 -8.5°
